SL-14 R/B, 22652

Orbit data source: Space-Track

SL-14 R/B, 22652 is space debris in LEO originally from a launch on Tue, 11 May 1993 UTC launched from the Plesetsk Missile And Space Complex (PKMTR). Debris objects in space refer to the collection of defunct objects orbiting the Earth. Examples of debris include non-operational satellites, rocket bodies, and fragments generated from explosions, collisions, or faulty payload assembly.

Loading next visibility...
Identifier
22652, 1993-030G
Orbit
LEO
Country
Flag of CISCIS
Related business
Manufacturer
Yuzhnoe
Mission
Spacecraft
Bus & Motor
S5M, Unknown motor
Mass
1,600 kg wet, 1,600 kg dry
Launch date (UTC)
1993-05-11 (33 years ago)
Launch vehicle
Unknown
Launch site
Plesetsk Missile And Space Complex (PKMTR)
Object type
Payload
Rocket body
Debris
Shape & HBR
Cyl, 1.4 m
Radar Cross Section
7.351 m², Medium (>0.1 m² and < 1m²)

Expand to show TLE details & history
Last TLE update: 12 hours ago

TLE from 12 hours ago
0 SL-14 R/B
1 22652U 93030G   25348.78071858  .00000010  00000-0 -38440-5 0  9994
2 22652  82.5876  81.9054 0007341   5.4241 112.6953 12.63195569502756
Epoch: 2025-12-14T18:44Z
TLE epoch observation values (Epoch: 2025-12-14T18:44:14.085Z)
Latitude
61.00952°
Longitude
-116.3532°
Altitude
1,422.368 km
Speed
7.154 km/s
True Right ascension
16h 33m 34s
True Declination
60° 52' 33"
Sunlit
Object was in daylight at epoch
Visualization orbit readout
Latitude
Unknown
Longitude
Unknown
Altitude
Unknown
Speed
Unknown
Apparent Right ascension
Unknown
Apparent Declination
Unknown
Sunlit
N/A
Visualization observer readout
Local Sidereal Time
05:20:45
Azimuth
Unknown
Elevation
Unknown
Doppler factor
Unknown
Orbital elements
Apogee altitude
1,412.817 km
Perigee altitude
1,401.386 km
Semi-major axis
7,785.238 km
Eccentricity
0.00073
Inclination
82.5876°
RAAN
81.9054°
Arg. of periapsis
5.4241°
True anomaly
112.77288°
Mean anomaly
112.6953°
Eccentric anomaly
112.73409°
Mean motion
3.15962 °/min
Orbital period
113.94 mins
BSTAR
-0.000003844
Loading maneuver chart data...
Computing Atmospheric mass density...
Loading historical data...
Loading historical data...
Loading historical data...
Loading historical data...
Loading historical data...
Loading historical data...
Loading historical data...

Documentation

Showing up to 5 results
|